Location: ??????
(41.3794°N, 22.5014°E)
Time: 07:08:39
(UTC+00:00)

Cosmos 1821 Rocket - Pass Details

Date: 30 November 2020
Orbit: 946 x 1004 km, 82.9° (Epoch: 17 January)

Event Time Altitude Azimuth Distance (km) Brightness Sun altitude
Rises 17:05:50 0° 351° (N) 3,674 7.0 -22.8°
Reaches altitude 10° 17:08:20 10° 352° (N) 2,731 6.3 -23.2°
Maximum altitude 17:14:37 86° 264° (W) 994 4.0 -24.4°
Drops below altitude 10° 17:20:56 10° 177° (S) 2,751 6.4 -25.6°
Sets 17:23:28 0° 176° (S) 3,702 7.1 -26.0°
